Tel Aviv, Israel

10:44 AM IDT on May 25, 2018 (GMT +0300)
Ben Gurion

Weather History for LLBG - September, 2013

Change the Weather History Date:

Monday, September 30, 2013

  Actual Average Record
Temperature  
Mean Temperature 76 °F -  
Max Temperature 84 °F 81 °F 102 °F (2002)
Min Temperature 67 °F 64 °F 64 °F (2000)
Cooling Degree Days 10    
Growing Degree Days 26 (Base 50)    
Moisture  
Dew Point 61 °F    
Average Humidity 59    
Maximum Humidity 73    
Minimum Humidity 40    
Precipitation  
Precipitation 0.00 in - - ()
Sea Level Pressure  
Sea Level Pressure 29.87 in    
Wind  
Wind Speed 5 mph ()    
Max Wind Speed 13 mph    
Max Gust Speed -    
Visibility 6.2 miles    
Events      
Averages and records for this station are not official NWS values.
T = Trace of Precipitation, MM = Missing Value Source: Averaged Metar Reports

Daily Weather History Graph

Daily Weather History Graph

Search for Another Location

Airport or City:

Astronomy

Sep. 30, 2013 Rise Set
Actual Time 6:33 AM IDT 6:26 PM IDT
Civil Twilight 6:09 AM IDT 6:51 PM IDT
Nautical Twilight 5:40 AM IDT 7:19 PM IDT
Astronomical Twilight 5:12 AM IDT 7:47 PM IDT
Moon 2:05 AM IDT (9/30) 3:33 PM IDT (9/30)
Length of Visible Light 12h 41m
Length of Day
11h 53m
Waning Crescent, 21% of the Moon is Illuminated
Sep 30
Waning Crescent
Oct 5
New
Oct 12
First Quarter
Oct 19
Full
Oct 27
Last Quarter

Hourly Weather History & Observations

Time (IDT) Temp. Heat Index Dew Point Humidity Pressure Visibility Wind Dir Wind Speed Gust Speed Precip Events Conditions
12:20 AM 71.6 °F - 59.0 °F 64% 29.89 in 6.2 mi Variable 3.5 mph - N/A   Partly Cloudy
1:20 AM 71.6 °F - 59.0 °F 64% 29.89 in 6.2 mi Variable 3.5 mph - N/A   Partly Cloudy
1:50 AM 71.6 °F - 59.0 °F 64% 29.89 in 6.2 mi Variable 3.5 mph - N/A   Partly Cloudy
2:20 AM 71.6 °F - 59.0 °F 64% 29.89 in 6.2 mi Variable 3.5 mph - N/A   Partly Cloudy
2:50 AM 69.8 °F - 59.0 °F 68% 29.89 in 6.2 mi Variable 3.5 mph - N/A   Partly Cloudy
3:00 AM 71 °F - 58 °F 55% 29.89 in 6 mi 3.5 mph - -   Scattered Clouds
3:20 AM 69.8 °F - 57.2 °F 64% 29.89 in 6.2 mi Variable 2.3 mph - N/A   Partly Cloudy
3:50 AM 69.8 °F - 59.0 °F 68% 29.89 in 6.2 mi Variable 3.5 mph - N/A   Partly Cloudy
4:20 AM 68.0 °F - 59.0 °F 73% 29.89 in 6.2 mi Variable 2.3 mph - N/A   Partly Cloudy
4:50 AM 68.0 °F - 59.0 °F 73% 29.89 in - Variable 3.5 mph - N/A   Clear
5:20 AM 69.8 °F - 59.0 °F 68% 29.89 in - Variable 2.3 mph - N/A   Clear
5:50 AM 69.8 °F - 59.0 °F 68% 29.89 in 6.2 mi SE 5.8 mph - N/A   Partly Cloudy
6:20 AM 68.0 °F - 59.0 °F 73% 29.89 in 6.2 mi SE 4.6 mph - N/A   Partly Cloudy
6:50 AM 69.8 °F - 59.0 °F 68% 29.89 in 6.2 mi ESE 4.6 mph - N/A   Partly Cloudy
7:20 AM 69.8 °F - 57.2 °F 64% 29.89 in - SSE 6.9 mph - N/A   Clear
7:50 AM 71.6 °F - 57.2 °F 60% 29.89 in - Variable 3.5 mph - N/A   Clear
8:20 AM 73.4 °F - 59.0 °F 61% 29.89 in 6.2 mi ESE 4.6 mph - N/A   Partly Cloudy
8:50 AM 77.0 °F - 57.2 °F 50% 29.89 in 6.2 mi Variable 1.2 mph - N/A   Partly Cloudy
9:00 AM 77 °F - 58 °F 42% 29.91 in 6 mi 1.2 mph - -   Scattered Clouds
9:20 AM 78.8 °F - 59.0 °F 51% 29.89 in 6.2 mi Variable 1.2 mph - N/A   Partly Cloudy
9:50 AM 78.8 °F - 59.0 °F 51% 29.89 in 6.2 mi Variable 3.5 mph - N/A   Partly Cloudy
10:20 AM 80.6 °F 81.1 °F 59.0 °F 48% 29.89 in 6.2 mi North 5.8 mph - N/A   Partly Cloudy
10:50 AM 82.4 °F 82.5 °F 59.0 °F 45% 29.89 in 6.2 mi NNE 3.5 mph - N/A   Partly Cloudy
11:20 AM 82.4 °F 82.0 °F 57.2 °F 42% 29.89 in 6.2 mi North 5.8 mph - N/A   Partly Cloudy
11:50 AM 84.2 °F 83.5 °F 57.2 °F 40% 29.89 in 6.2 mi NW 6.9 mph - N/A   Partly Cloudy
12:20 PM 82.4 °F 82.9 °F 60.8 °F 48% 29.86 in 6.2 mi WNW 11.5 mph - N/A   Partly Cloudy
12:50 PM 82.4 °F 82.9 °F 60.8 °F 48% 29.86 in 6.2 mi WNW 12.7 mph - N/A   Partly Cloudy
1:20 PM 82.4 °F 82.9 °F 60.8 °F 48% 29.86 in 6.2 mi NW 12.7 mph - N/A   Partly Cloudy
1:50 PM 84.2 °F 85.0 °F 62.6 °F 48% 29.83 in 6.2 mi WNW 12.7 mph - N/A   Partly Cloudy
2:20 PM 82.4 °F 83.4 °F 62.6 °F 51% 29.83 in - NW 12.7 mph - N/A   Clear
2:50 PM 82.4 °F 83.4 °F 62.6 °F 51% 29.83 in 6.2 mi WNW 12.7 mph - N/A   Partly Cloudy
3:00 PM 82 °F - 62 °F 42% 29.84 in 6 mi WNW 12.7 mph - -   Scattered Clouds
3:20 PM 82.4 °F 83.4 °F 62.6 °F 51% 29.83 in 6.2 mi NW 12.7 mph - N/A   Partly Cloudy
3:50 PM 82.4 °F 83.9 °F 64.4 °F 54% 29.83 in 6.2 mi WNW 12.7 mph - N/A   Partly Cloudy
4:20 PM 82.4 °F 83.9 °F 64.4 °F 54% 29.83 in 6.2 mi NW 12.7 mph - N/A   Partly Cloudy
4:50 PM 82.4 °F 84.6 °F 66.2 °F 58% 29.83 in 6.2 mi NW 12.7 mph - N/A   Scattered Clouds
5:20 PM 80.6 °F 82.3 °F 64.4 °F 58% 29.83 in 6.2 mi NW 11.5 mph - N/A   Partly Cloudy
5:50 PM 80.6 °F 82.3 °F 64.4 °F 58% 29.83 in 6.2 mi NNW 11.5 mph - N/A   Partly Cloudy
6:20 PM 78.8 °F - 64.4 °F 61% 29.83 in 6.2 mi North 11.5 mph - N/A   Partly Cloudy
6:50 PM 78.8 °F - 66.2 °F 65% 29.83 in 6.2 mi North 12.7 mph - N/A   Partly Cloudy
7:20 PM 78.8 °F - 66.2 °F 65% 29.83 in 6.2 mi North 12.7 mph - N/A   Partly Cloudy
7:50 PM 77.0 °F - 66.2 °F 69% 29.86 in 6.2 mi North 9.2 mph - N/A   Partly Cloudy
8:20 PM 77.0 °F - 66.2 °F 69% 29.86 in 6.2 mi North 5.8 mph - N/A   Partly Cloudy
8:50 PM 77.0 °F - 66.2 °F 69% 29.86 in 6.2 mi North 4.6 mph - N/A   Partly Cloudy
9:00 PM 77 °F - 65 °F 59% 29.87 in 6 mi North 4.6 mph - -   Scattered Clouds
9:20 PM 77.0 °F - 66.2 °F 69% 29.86 in 6.2 mi NNE 4.6 mph - N/A   Partly Cloudy
9:50 PM 77.0 °F - 66.2 °F 69% 29.86 in 6.2 mi Variable 3.5 mph - N/A   Partly Cloudy
10:20 PM 77.0 °F - 64.4 °F 65% 29.86 in 6.2 mi Variable 3.5 mph - N/A   Partly Cloudy
10:50 PM 77.0 °F - 64.4 °F 65% 29.86 in 6.2 mi Variable 3.5 mph - N/A   Partly Cloudy
11:20 PM 75.2 °F - 64.4 °F 69% 29.86 in 6.2 mi Variable 3.5 mph - N/A   Partly Cloudy
11:50 PM 75.2 °F - 64.4 °F 69% 29.86 in 6.2 mi Variable 3.5 mph - N/A   Partly Cloudy